DateTimeUTC,F1_A11,F1_S11,BsB_S11,BsG_S11,BsR_S11,BbsB_S11,BbsG_S11,BbsR_S11,BaB_A11,BaG_A11,BaR_A11,Tu_S11,T_S11,Uu_S11,U_S11,P_S11,T1_A11
2021-03-17T12:00:00Z,00040200,21000000,,,,,,,-000.01,0000.05,-000.27,17.1,24.4,,00.0,0651.3,30.9
2021-03-17T12:01:00Z,00040200,21000000,,,,,,,0000.48,0000.45,0000.74,17.1,24.4,,00.0,0651.3,30.9
2021-03-17T12:02:00Z,00040200,21000000,,,,,,,-000.04,-000.28,-000.59,17.1,24.4,,00.0,0651.3,30.9
2021-03-17T12:03:00Z,00040200,61000000,,,,,,,-000.12,-000.22,0000.53,17.1,24.4,,00.0,0651.3,30.9
2021-03-17T12:04:00Z,00040200,41000000,0000.71,0000.18,0000.10,0000.72,0000.04,0000.03,0000.69,0000.75,0000.03,17.2,24.2,00.1,00.0,0652.3,30.9
2021-03-17T12:05:00Z,00040200,01000000,0000.20,0000.11,0000.20,-000.04,-000.06,-000.06,-000.01,0000.31,0000.03,17.3,24.2,00.2,00.1,0652.4,30.9
2021-03-17T12:06:00Z,00040200,01000000,0001.02,0000.03,0000.08,0000.50,-000.22,0000.06,0000.88,0000.33,0001.15,17.3,24.2,00.2,00.1,0652.4,31.0
2021-03-17T12:07:00Z,00040200,01000000,0000.58,0000.30,0000.36,-000.04,0000.14,-000.12,-000.18,0000.28,-000.29,17.3,24.1,00.2,00.1,0652.4,30.9
2021-03-17T12:08:00Z,00040200,01000000,0000.26,0000.12,0000.37,-000.19,-000.04,0000.11,0000.08,-000.11,-000.30,17.3,24.1,00.2,00.2,0652.4,30.9
2021-03-17T12:09:00Z,00040200,01000000,-000.01,0000.03,0000.10,-000.21,0000.04,0000.02,-000.60,0000.29,-000.04,17.3,24.1,00.2,00.1,0652.4,30.9
2021-03-17T12:10:00Z,00040200,01000000,0000.63,0000.38,0000.24,-000.07,0000.19,0000.07,-000.03,-000.39,-000.12,17.3,24.1,00.1,00.1,0652.3,30.9
2021-03-17T12:11:00Z,00040200,01000000,0000.07,0000.15,0000.24,0000.10,-000.07,-000.02,0000.17,-000.26,0000.27,17.3,24.1,00.1,00.1,0652.4,30.9
2021-03-17T12:12:00Z,00040200,01000000,0000.31,0000.13,0000.07,0000.30,-000.11,0000.16,-000.04,-000.01,-000.07,17.3,24.1,00.1,00.1,0652.4,31.0
2021-03-17T12:13:00Z,00040200,01000000,0000.30,0000.20,0000.11,0000.27,0000.13,0000.04,0000.30,0000.43,0000.26,17.3,24.1,00.1,00.1,0652.4,31.0
2021-03-17T12:14:00Z,00040200,01000000,0000.01,0000.29,0000.07,-000.44,0000.18,0000.01,0000.36,0000.19,0000.06,17.4,24.2,00.1,00.1,0652.5,31.0
2021-03-17T12:15:00Z,00040200,01000000,-000.09,0000.14,0000.20,0000.14,-000.06,-000.17,-000.43,-000.24,-000.24,17.4,24.2,00.1,00.1,0652.6,31.0
2021-03-17T12:16:00Z,00040200,01000000,0000.68,0000.18,0000.26,-000.32,0000.13,-000.05,0000.03,0000.15,-000.01,17.4,24.2,00.1,00.1,0652.6,30.9
2021-03-17T12:17:00Z,00040200,01000000,0000.24,0000.02,0000.14,0000.40,-000.02,-000.04,0000.09,0000.02,0000.00,17.4,24.1,00.1,00.0,0652.6,30.9
2021-03-17T12:18:00Z,00040200,01000000,0000.11,0000.52,0000.20,-000.30,0000.04,0000.07,0000.13,-000.14,0000.10,17.3,24.1,00.1,00.1,0652.6,30.9
2021-03-17T12:19:00Z,00040200,01000000,0000.48,0000.16,0000.32,-000.14,-000.08,-000.09,0000.11,0000.56,0000.16,17.3,24.2,00.1,00.1,0652.6,30.9
2021-03-17T12:20:00Z,00040200,01000000,0000.50,-000.04,0000.25,0000.18,0000.23,0000.32,0000.36,-000.27,0000.24,17.3,24.1,00.1,00.1,0652.6,30.9
2021-03-17T12:21:00Z,00040200,01000000,-000.25,0000.21,0000.31,0000.04,0000.08,-000.08,-000.47,0000.01,-000.47,17.3,24.2,00.1,00.1,0652.6,30.9
2021-03-17T12:22:00Z,00040200,01000000,0000.35,0000.17,0000.26,0000.14,-000.02,0000.23,0000.37,0000.14,0000.39,17.3,24.2,00.1,00.1,0652.6,30.9
2021-03-17T12:23:00Z,00040200,01000000,0000.05,0000.17,0000.21,-000.11,0000.10,0000.33,-000.11,-000.54,-000.02,17.3,24.1,00.1,00.1,0652.6,30.9
2021-03-17T12:24:00Z,00040200,01000000,0000.35,0000.45,0000.34,0000.39,0000.06,0000.09,-000.16,0000.66,-000.04,17.3,24.1,00.1,00.0,0652.6,30.9
2021-03-17T12:25:00Z,00040200,01000000,-000.53,0000.20,0000.36,-000.01,-000.02,0000.07,0000.05,-000.35,0000.15,17.4,24.1,00.1,00.0,0652.6,30.9
2021-03-17T12:26:00Z,00040200,01000000,0000.20,0000.19,0000.11,0000.16,-000.09,0000.01,-000.22,-000.02,-000.04,17.4,24.1,00.1,00.0,0652.6,30.9
2021-03-17T12:27:00Z,00040200,01000000,-000.10,0000.03,0000.09,0000.04,0000.04,-000.03,0000.26,0000.09,-000.06,17.4,24.1,00.1,00.0,0652.7,30.9
2021-03-17T12:28:00Z,00040200,01000000,0000.43,0000.23,0000.21,0000.43,-000.07,0000.15,0000.44,0000.39,0000.30,17.4,24.1,00.1,00.1,0652.7,30.9
2021-03-17T12:29:00Z,00040200,01000000,-000.24,0000.06,0000.21,-000.16,0000.03,0000.03,0000.44,0000.34,0000.23,17.4,24.1,00.1,00.1,0652.7,31.0
2021-03-17T12:30:00Z,00040200,01000000,-000.09,0000.06,0000.23,0000.41,-000.07,0000.05,-000.14,-000.24,-000.11,17.4,24.2,00.1,00.1,0652.8,30.9
2021-03-17T12:31:00Z,00040200,01000000,0000.70,0000.24,0000.36,0000.21,0000.09,-000.24,0000.12,0000.22,0000.15,17.4,24.2,00.1,00.1,0652.8,30.9
2021-03-17T12:32:00Z,00040200,01000000,0000.07,0000.05,0000.37,0000.17,-000.09,0000.09,0000.20,0000.00,0000.01,17.4,24.1,00.1,00.1,0652.9,30.9
2021-03-17T12:33:00Z,00040200,01000000,0000.23,0000.26,0000.22,-000.00,-000.15,-000.27,0000.23,0000.53,0000.16,17.4,24.2,00.1,00.1,0652.9,30.9
2021-03-17T12:34:00Z,00040200,01000000,-000.24,0000.20,0000.27,0000.21,0000.09,0000.01,-000.18,0000.18,0000.08,17.4,24.1,00.1,00.1,0652.9,30.9
2021-03-17T12:35:00Z,00040200,01000000,0000.60,0000.01,0000.25,0000.17,0000.18,-000.11,0000.13,-000.16,0000.00,17.4,24.2,00.2,00.1,0652.9,30.9
2021-03-17T12:36:00Z,00040200,01000000,-000.15,0000.10,0000.12,0000.69,0000.08,-000.12,0000.06,-000.05,0000.09,17.4,24.1,00.2,00.1,0653.0,30.9
2021-03-17T12:37:00Z,00040200,01000000,0000.13,0000.00,0000.12,-000.13,0000.01,0000.01,0000.55,0000.16,0000.15,17.3,24.1,00.1,00.1,0653.0,30.9
2021-03-17T12:38:00Z,00040200,01000000,0000.34,0000.16,0000.54,0000.41,0000.30,0000.03,0000.14,0000.57,0000.32,17.3,24.1,00.2,00.1,0653.0,30.9
2021-03-17T12:39:00Z,00040200,01000000,0000.11,0000.18,0000.24,0000.03,0000.02,-000.20,-000.09,0000.03,0000.03,17.3,24.1,00.1,00.1,0653.0,30.9
2021-03-17T12:40:00Z,00040200,01000000,-000.39,0000.19,0000.35,0000.21,0000.16,0000.05,0000.07,-000.11,0000.24,17.3,24.1,00.2,00.2,0653.1,30.9
2021-03-17T12:41:00Z,00040200,01000000,-000.14,0000.48,0000.12,-000.03,0000.09,-000.17,0000.64,0000.57,0000.03,17.3,24.1,00.2,00.2,0653.1,30.9
2021-03-17T12:42:00Z,00040200,01000000,0000.14,0000.28,0000.27,0000.25,0000.07,0000.23,0000.25,0000.21,0000.42,17.3,24.1,00.3,00.2,0653.1,30.9
2021-03-17T12:43:00Z,00040200,01000000,-000.04,0000.00,0000.13,0000.24,0000.21,-000.31,-000.15,-000.30,-000.08,17.3,24.1,00.3,00.2,0653.1,30.9
2021-03-17T12:44:00Z,00040200,01000000,0000.12,0000.43,0000.23,0000.18,0000.08,0000.06,0000.40,0000.37,0000.06,17.3,24.1,00.3,00.2,0653.1,30.9
2021-03-17T12:45:00Z,00040200,01000000,-000.38,0000.39,0000.32,0000.15,-000.05,0000.11,-000.35,-000.11,0000.05,17.3,24.1,00.4,00.2,0653.1,30.9
2021-03-17T12:46:00Z,00040200,01000000,0000.59,-000.14,-000.00,-000.03,-000.04,-000.09,0000.05,0000.26,-000.03,17.3,24.1,00.3,00.2,0653.1,30.9
2021-03-17T12:47:00Z,00040200,01000000,-000.48,0000.02,-000.05,-000.52,0000.09,-000.03,0000.25,0000.35,-000.04,17.3,24.1,00.4,00.3,0653.1,30.9
2021-03-17T12:48:00Z,00040200,01000000,0000.61,0000.08,0000.20,0000.46,-000.02,0000.20,0000.01,-000.11,0000.21,17.3,24.1,00.3,00.2,0653.1,30.9
2021-03-17T12:49:00Z,00040200,01000000,0000.39,0000.13,0000.08,0000.35,0000.27,-000.06,0000.18,0000.02,-000.07,17.3,24.1,00.4,00.2,0653.1,30.9
2021-03-17T12:50:00Z,00040200,01000000,0000.36,0000.35,-000.28,0000.10,-000.12,-000.12,0000.28,0000.52,0000.41,17.3,24.1,00.3,00.2,0653.1,30.9
2021-03-17T12:51:00Z,00040200,01000000,0000.26,0000.16,0000.24,0000.24,0000.11,0000.13,-000.18,-000.54,-000.10,17.3,24.0,00.4,00.2,0653.1,30.9
2021-03-17T12:52:00Z,00040200,01000000,0000.49,-000.03,0000.23,0000.13,0000.09,-000.01,0000.36,0000.41,0000.49,17.3,24.1,00.3,00.2,0653.0,30.9
2021-03-17T12:53:00Z,00040200,01000000,0000.22,0000.23,0000.19,0000.09,-000.02,-000.01,-000.01,-000.00,-000.25,17.3,24.0,00.4,00.3,0653.0,30.9
2021-03-17T12:54:00Z,00040200,01000000,0000.23,0000.26,0000.13,-000.00,0000.16,0000.03,0000.24,0000.20,-000.02,17.3,24.0,00.4,00.3,0653.1,30.9
2021-03-17T12:55:00Z,00040200,01000000,-000.11,0000.40,0000.19,0000.42,-000.17,0000.06,0000.22,0000.20,0000.47,17.3,24.0,00.4,00.3,0653.0,30.9
2021-03-17T12:56:00Z,00040200,01000000,0000.06,0000.18,0000.23,-000.20,0000.03,0000.07,0000.27,0000.19,-000.02,17.3,24.0,00.6,00.4,0653.0,30.9
2021-03-17T12:57:00Z,00040200,41000000,,,,,,,-000.71,-000.61,-000.34,17.4,24.1,00.9,00.6,0653.0,30.9
2021-03-17T12:58:00Z,00040200,61000000,,,,,,,0000.30,0000.44,0000.45,17.1,24.2,00.4,00.2,0652.1,30.9
2021-03-17T12:59:00Z,00040200,21000000,,,,,,,0000.27,0000.28,-000.10,17.1,24.3,00.3,00.2,0652.0,30.9
